Location: Blanot
(47.1713°N, 4.2340°E)
Time: 09:41:08
(UTC+00:00)

Tsikada Rocket - Pass Details

Date: 14 July 2020
Orbit: 959 x 1008 km, 82.9° (Epoch: 06 August)

Event Time Altitude Azimuth Distance (km) Brightness Sun altitude
Rises 01:30:14 0° 352° (N) 3,745 8.0 -17.5°
Reaches altitude 10° 01:32:47 10° 354° (N) 2,794 7.3 -17.3°
Maximum altitude 01:39:13 73° 80° (E) 1,054 4.2 -16.9°
Enters shadow 01:45:05 13° 164° (SSE) 2,582 5.8 -16.4°
